| time (UTC) | temp C | wind direction | speed KPH | gust KPH | rain 1hr cm | rain 24hr cm | rain mn cm | humidity % | barometer mb |
| 20260503053252 | 14 | 217 | 0.0 | 4.8 | 0.00 | 0.00 | 0.00 | 72 | 1018.4 |
| 20260503052747 | 14 | 192 | 0.0 | 4.8 | 0.00 | 0.00 | 0.00 | 71 | 1018.3 |
| 20260503052252 | 14 | 185 | 0.0 | 6.4 | 0.00 | 0.00 | 0.00 | 72 | 1018.2 |
| 20260503052004 | 14 | 169 | 0.0 | 6.4 | 0.00 | 0.00 | 0.00 | 72 | 1018.2 |
| 20260503051248 | 14 | 339 | 1.6 | 4.8 | 0.00 | 0.00 | 0.00 | 72 | 1018.1 |
| 20260503050252 | 14 | 218 | 3.2 | 6.4 | 0.00 | 0.00 | 0.00 | 73 | 1018.1 |
| 20260503044747 | 13 | 228 | 3.2 | 6.4 | 0.00 | 0.00 | 0.00 | 73 | 1018.2 |
| 20260503044507 | 13 | 17 | 6.4 | 9.7 | 0.00 | 0.00 | 0.00 | 73 | 1018.3 |
| 20260503043747 | 13 | 224 | 0.0 | 9.7 | 0.00 | 0.00 | 0.00 | 73 | 1018.4 |
| 20260503043248 | 13 | 296 | 3.2 | 6.4 | 0.00 | 0.00 | 0.00 | 73 | 1018.4 |
| 20260503042747 | 13 | 293 | 3.2 | 6.4 | 0.00 | 0.00 | 0.00 | 74 | 1018.6 |
| 20260503042249 | 13 | 262 | 3.2 | 6.4 | 0.00 | 0.00 | 0.00 | 74 | 1018.3 |
| 20260503041747 | 13 | 202 | 3.2 | 6.4 | 0.00 | 0.00 | 0.00 | 74 | 1018.3 |
| 20260503041248 | 13 | 203 | 4.8 | 9.7 | 0.00 | 0.00 | 0.00 | 75 | 1018.2 |
| 20260503040746 | 13 | 259 | 1.6 | 9.7 | 0.00 | 0.00 | 0.00 | 75 | 1018.6 |
| 20260503040249 | 13 | 278 | 3.2 | 9.7 | 0.00 | 0.00 | 0.00 | 74 | 1018.4 |
| 20260503035749 | 13 | 224 | 4.8 | 8.0 | 0.00 | 0.00 | 0.00 | 74 | 1018.2 |
| 20260503035251 | 13 | 299 | 6.4 | 6.4 | 0.00 | 0.00 | 0.00 | 75 | 1018.3 |
| 20260503034746 | 13 | 178 | 1.6 | 6.4 | 0.00 | 0.00 | 0.00 | 75 | 1018.6 |
| 20260503034248 | 13 | 260 | 1.6 | 6.4 | 0.00 | 0.00 | 0.00 | 75 | 1018.4 |
| 20260503034006 | 12 | 303 | 3.2 | 6.4 | 0.00 | 0.00 | 0.00 | 76 | 1018.7 |
| 20260503033248 | 13 | 318 | 1.6 | 8.0 | 0.00 | 0.00 | 0.00 | 75 | 1018.6 |
| 20260503032750 | 13 | 189 | 3.2 | 8.0 | 0.00 | 0.00 | 0.00 | 73 | 1018.6 |
| 20260503032252 | 13 | 174 | 4.8 | 6.4 | 0.00 | 0.00 | 0.00 | 75 | 1018.4 |
| 20260503032008 | 13 | 226 | 4.8 | 6.4 | 0.00 | 0.00 | 0.00 | 75 | 1018.4 |
| 20260503031249 | 13 | 272 | 3.2 | 6.4 | 0.00 | 0.00 | 0.00 | 75 | 1018.3 |
| 20260503030248 | 13 | 241 | 3.2 | 9.7 | 0.00 | 0.00 | 0.00 | 74 | 1018.3 |
| 20260503025747 | 13 | 267 | 3.2 | 9.7 | 0.00 | 0.00 | 0.00 | 74 | 1018.4 |
| 20260503025008 | 12 | 238 | 3.2 | 8.0 | 0.00 | 0.00 | 0.00 | 74 | 1018.2 |
| 20260503024247 | 12 | 262 | 1.6 | 6.4 | 0.00 | 0.00 | 0.00 | 75 | 1018.4 |
| 20260503023249 | 12 | 208 | 6.4 | 8.0 | 0.00 | 0.00 | 0.00 | 75 | 1018.7 |
| 20260503022248 | 12 | 217 | 3.2 | 8.0 | 0.00 | 0.00 | 0.00 | 75 | 1018.3 |
| 20260503022014 | 12 | 24 | 3.2 | 8.0 | 0.00 | 0.00 | 0.00 | 74 | 1018.4 |
| 20260503021305 | 13 | 187 | 6.4 | 8.0 | 0.00 | 0.00 | 0.00 | 74 | 1018.6 |
| 20260503020015 | 13 | 250 | 1.6 | 12.9 | 0.00 | 0.00 | 0.00 | 73 | 1018.8 |
| 20260503015251 | 13 | 210 | 3.2 | 12.9 | 0.00 | 0.00 | 0.00 | 73 | 1018.7 |
| 20260503014747 | 13 | 240 | 4.8 | 9.7 | 0.00 | 0.00 | 0.00 | 73 | 1018.6 |
| 20260503013750 | 13 | 280 | 6.4 | 11.3 | 0.00 | 0.00 | 0.00 | 73 | 1018.8 |
| 20260503013511 | 13 | 275 | 6.4 | 8.0 | 0.00 | 0.00 | 0.00 | 73 | 1018.8 |
| 20260503012746 | 13 | 269 | 3.2 | 8.0 | 0.00 | 0.00 | 0.00 | 73 | 1018.7 |
| 20260503011506 | 13 | 336 | 6.4 | 6.4 | 0.00 | 0.00 | 0.00 | 72 | 1018.6 |
| 20260503005749 | 13 | 309 | 1.6 | 9.7 | 0.00 | 0.00 | 0.00 | 72 | 1018.9 |
| 20260503005248 | 13 | 209 | 4.8 | 6.4 | 0.00 | 0.00 | 0.00 | 73 | 1019.0 |
| 20260503005007 | 13 | 293 | 0.0 | 6.4 | 0.00 | 0.00 | 0.00 | 73 | 1018.8 |
| 20260503004513 | 13 | 251 | 1.6 | 6.4 | 0.00 | 0.00 | 0.00 | 73 | 1019.2 |
| 20260503004006 | 13 | 309 | 0.0 | 6.4 | 0.00 | 0.00 | 0.00 | 73 | 1019.1 |
| 20260503003251 | 13 | 295 | 0.0 | 6.4 | 0.00 | 0.00 | 0.00 | 72 | 1019.3 |
| 20260503002747 | 13 | 219 | 3.2 | 6.4 | 0.00 | 0.00 | 0.00 | 72 | 1019.3 |
| 20260503002251 | 13 | 269 | 1.6 | 6.4 | 0.00 | 0.00 | 0.00 | 71 | 1019.4 |
| 20260503001517 | 13 | 279 | 3.2 | 8.0 | 0.00 | 0.00 | 0.00 | 70 | 1019.5 |
| 20260503000746 | 13 | 228 | 4.8 | 9.7 | 0.00 | 0.00 | 0.00 | 71 | 1019.4 |
| 20260503000515 | 13 | 232 | 4.8 | 9.7 | 0.00 | 0.00 | 0.00 | 71 | 1019.5 |
| 20260502235249 | 13 | 305 | 3.2 | 8.0 | 0.00 | 0.00 | 0.00 | 71 | 1019.7 |
| 20260502234748 | 13 | 212 | 3.2 | 8.0 | 0.00 | 0.00 | 0.00 | 71 | 1019.5 |
| 20260502234252 | 13 | 178 | 3.2 | 8.0 | 0.00 | 0.00 | 0.00 | 71 | 1019.9 |
| 20260502233751 | 13 | 248 | 4.8 | 8.0 | 0.00 | 0.00 | 0.00 | 70 | 1019.7 |
| 20260502233248 | 13 | 264 | 1.6 | 8.0 | 0.00 | 0.00 | 0.00 | 70 | 1019.8 |
| 20260502232747 | 13 | 217 | 0.0 | 9.7 | 0.00 | 0.00 | 0.00 | 70 | 1019.7 |
| 20260502232248 | 13 | 142 | 0.0 | 9.7 | 0.00 | 0.00 | 0.00 | 70 | 1019.8 |
| 20260502232006 | 13 | 197 | 0.0 | 9.7 | 0.00 | 0.00 | 0.00 | 70 | 1020.0 |
| 20260502231248 | 13 | 166 | 1.6 | 9.7 | 0.00 | 0.00 | 0.00 | 69 | 1019.7 |
| 20260502230747 | 13 | 253 | 4.8 | 8.0 | 0.00 | 0.00 | 0.00 | 69 | 1019.8 |
| 20260502230515 | 13 | 193 | 3.2 | 9.7 | 0.00 | 0.00 | 0.00 | 69 | 1019.8 |
| 20260502225746 | 14 | 236 | 4.8 | 9.7 | 0.00 | 0.00 | 0.00 | 69 | 1019.9 |
| 20260502225251 | 14 | 330 | 4.8 | 8.0 | 0.00 | 0.00 | 0.00 | 69 | 1019.7 |
| 20260502224747 | 13 | 221 | 3.2 | 6.4 | 0.00 | 0.00 | 0.00 | 70 | 1019.9 |
| 20260502224249 | 13 | 312 | 6.4 | 8.0 | 0.00 | 0.00 | 0.00 | 69 | 1019.9 |
| 20260502223750 | 13 | 324 | 3.2 | 8.0 | 0.00 | 0.00 | 0.00 | 69 | 1019.9 |
| 20260502223251 | 13 | 308 | 4.8 | 8.0 | 0.00 | 0.00 | 0.00 | 69 | 1019.9 |
| 20260502222747 | 14 | 308 | 4.8 | 8.0 | 0.00 | 0.00 | 0.00 | 68 | 1019.8 |
| 20260502222252 | 14 | 216 | 3.2 | 6.4 | 0.00 | 0.00 | 0.00 | 68 | 1019.9 |
| 20260502221512 | 14 | 215 | 1.6 | 8.0 | 0.00 | 0.00 | 0.00 | 67 | 1020.1 |
| 20260502220746 | 14 | 284 | 6.4 | 9.7 | 0.00 | 0.00 | 0.00 | 66 | 1019.9 |
| 20260502220248 | 14 | 277 | 3.2 | 9.7 | 0.00 | 0.00 | 0.00 | 66 | 1019.9 |
| 20260502215746 | 14 | 344 | 6.4 | 6.4 | 0.00 | 0.00 | 0.00 | 67 | 1020.2 |
| 20260502215248 | 14 | 253 | 4.8 | 6.4 | 0.00 | 0.00 | 0.00 | 67 | 1020.0 |
| 20260502214248 | 14 | 327 | 3.2 | 8.0 | 0.00 | 0.00 | 0.00 | 66 | 1020.1 |
| 20260502213750 | 14 | 310 | 0.0 | 9.7 | 0.00 | 0.00 | 0.00 | 66 | 1019.9 |
| 20260502213248 | 15 | 216 | 4.8 | 9.7 | 0.00 | 0.00 | 0.00 | 65 | 1019.9 |
| 20260502212249 | 14 | 310 | 3.2 | 8.0 | 0.00 | 0.00 | 0.00 | 65 | 1019.7 |
| 20260502211749 | 14 | 290 | 1.6 | 8.0 | 0.00 | 0.00 | 0.00 | 65 | 1019.8 |
| 20260502211248 | 15 | 240 | 4.8 | 8.0 | 0.00 | 0.00 | 0.00 | 65 | 1019.9 |
| 20260502210251 | 15 | 312 | 8.0 | 8.0 | 0.00 | 0.00 | 0.00 | 64 | 1020.0 |
| 20260502205749 | 15 | 313 | 1.6 | 8.0 | 0.00 | 0.00 | 0.00 | 64 | 1019.8 |
| 20260502204747 | 15 | 284 | 1.6 | 6.4 | 0.00 | 0.00 | 0.00 | 65 | 1019.8 |
| 20260502204248 | 15 | 304 | 3.2 | 6.4 | 0.00 | 0.00 | 0.00 | 64 | 1020.0 |
| 20260502203746 | 15 | 285 | 4.8 | 6.4 | 0.00 | 0.00 | 0.00 | 63 | 1020.0 |
| 20260502203515 | 15 | 279 | 3.2 | 8.0 | 0.00 | 0.00 | 0.00 | 63 | 1020.1 |
| 20260502202748 | 15 | 277 | 3.2 | 8.0 | 0.00 | 0.00 | 0.00 | 62 | 1020.2 |
| 20260502201746 | 15 | 291 | 3.2 | 8.0 | 0.00 | 0.00 | 0.00 | 61 | 1020.1 |
| 20260502201511 | 15 | 310 | 1.6 | 8.0 | 0.00 | 0.00 | 0.00 | 60 | 1020.1 |
| 20260502201011 | 15 | 299 | 3.2 | 11.3 | 0.00 | 0.00 | 0.00 | 60 | 1020.0 |
| 20260502200247 | 15 | 291 | 6.4 | 11.3 | 0.00 | 0.00 | 0.00 | 60 | 1019.9 |
| 20260502195746 | 16 | 292 | 6.4 | 9.7 | 0.00 | 0.00 | 0.00 | 60 | 1020.0 |
| 20260502195251 | 16 | 230 | 4.8 | 9.7 | 0.00 | 0.00 | 0.00 | 59 | 1019.7 |
| 20260502194247 | 16 | 292 | 6.4 | 9.7 | 0.00 | 0.00 | 0.00 | 59 | 1019.8 |
| 20260502193749 | 16 | 301 | 1.6 | 8.0 | 0.00 | 0.00 | 0.00 | 60 | 1019.7 |
| 20260502193508 | 16 | 265 | 1.6 | 6.4 | 0.00 | 0.00 | 0.00 | 58 | 1019.7 |
| 20260502193006 | 16 | 238 | 3.2 | 6.4 | 0.00 | 0.00 | 0.00 | 58 | 1019.7 |
| 20260502192247 | 16 | 269 | 3.2 | 8.0 | 0.00 | 0.00 | 0.00 | 57 | 1019.5 |
| 20260502191748 | 16 | 319 | 4.8 | 9.7 | 0.00 | 0.00 | 0.00 | 58 | 1019.6 |
| 20260502191511 | 16 | 306 | 4.8 | 9.7 | 0.00 | 0.00 | 0.00 | 57 | 1019.7 |
| 20260502191008 | 17 | 0 | 4.8 | 11.3 | 0.00 | 0.00 | 0.00 | 57 | 1019.5 |
| 20260502185746 | 16 | 276 | 3.2 | 6.4 | 0.00 | 0.00 | 0.00 | 57 | 1019.5 |
| 20260502185247 | 16 | 295 | 1.6 | 6.4 | 0.00 | 0.00 | 0.00 | 57 | 1019.5 |
| 20260502184746 | 17 | 268 | 4.8 | 6.4 | 0.00 | 0.00 | 0.00 | 57 | 1019.3 |
| 20260502184247 | 17 | 296 | 4.8 | 6.4 | 0.00 | 0.00 | 0.00 | 56 | 1019.5 |
| 20260502183745 | 17 | 320 | 3.2 | 6.4 | 0.00 | 0.00 | 0.00 | 57 | 1019.4 |
| 20260502183248 | 17 | 330 | 6.4 | 6.4 | 0.00 | 0.00 | 0.00 | 56 | 1019.3 |
| 20260502183010 | 17 | 324 | 4.8 | 6.4 | 0.00 | 0.00 | 0.00 | 55 | 1019.5 |
| 20260502182247 | 17 | 314 | 4.8 | 6.4 | 0.00 | 0.00 | 0.00 | 57 | 1019.4 |
| 20260502181746 | 17 | 294 | 3.2 | 6.4 | 0.00 | 0.00 | 0.00 | 56 | 1019.2 |
| 20260502181247 | 17 | 311 | 4.8 | 6.4 | 0.00 | 0.00 | 0.00 | 55 | 1019.5 |
| 20260502180746 | 17 | 324 | 4.8 | 6.4 | 0.00 | 0.00 | 0.00 | 54 | 1019.3 |
| 20260502170505 | 19 | 305 | 0.0 | 4.8 | 0.00 | 0.00 | 0.00 | 50 | 1019.3 |
| 20260502164248 | 20 | 197 | 4.8 | 6.4 | 0.00 | 0.00 | 0.00 | 49 | 1019.4 |
| 20260502164008 | 20 | 210 | 3.2 | 6.4 | 0.00 | 0.00 | 0.00 | 47 | 1019.3 |
| 20260502163248 | 20 | 171 | 3.2 | 6.4 | 0.00 | 0.00 | 0.00 | 49 | 1019.5 |
| 20260502162247 | 20 | 223 | 3.2 | 9.7 | 0.00 | 0.00 | 0.00 | 47 | 1019.6 |
| 20260502160746 | 20 | 184 | 4.8 | 9.7 | 0.00 | 0.00 | 0.00 | 48 | 1019.5 |
| 20260502160511 | 20 | 194 | 3.2 | 9.7 | 0.00 | 0.00 | 0.00 | 50 | 1019.6 |
| 20260502152005 | 21 | 167 | 3.2 | 9.7 | 0.00 | 0.00 | 0.00 | 48 | 1019.9 |
| 20260502151508 | 21 | 194 | 1.6 | 9.7 | 0.00 | 0.00 | 0.00 | 47 | 1020.0 |
| 20260502151008 | 21 | 158 | 4.8 | 9.7 | 0.00 | 0.00 | 0.00 | 45 | 1020.2 |
| 20260502150250 | 21 | 180 | 4.8 | 9.7 | 0.00 | 0.00 | 0.00 | 44 | 1020.0 |
| 20260502130512 | 21 | 178 | 6.4 | 11.3 | 0.00 | 0.00 | 0.00 | 45 | 1021.8 |
| 20260502123250 | 21 | 160 | 3.2 | 12.9 | 0.00 | 0.00 | 0.00 | 45 | 1022.2 |
| 20260502122247 | 21 | 194 | 3.2 | 14.5 | 0.00 | 0.00 | 0.00 | 45 | 1022.2 |
| 20260502122009 | 21 | 224 | 4.8 | 11.3 | 0.00 | 0.00 | 0.00 | 47 | 1022.3 |
| 20260502121252 | 21 | 157 | 6.4 | 9.7 | 0.00 | 0.00 | 0.00 | 46 | 1022.4 |
| 20260502121009 | 20 | 189 | 4.8 | 11.3 | 0.00 | 0.00 | 0.00 | 45 | 1022.6 |
| 20260502120250 | 21 | 178 | 4.8 | 14.5 | 0.00 | 0.00 | 0.00 | 46 | 1022.5 |
| 20260502115748 | 21 | 169 | 4.8 | 14.5 | 0.00 | 0.00 | 0.00 | 47 | 1022.5 |
| 20260502115247 | 20 | 165 | 6.4 | 12.9 | 0.00 | 0.00 | 0.00 | 46 | 1022.6 |
| 20260502114010 | 20 | 212 | 9.7 | 12.9 | 0.00 | 0.00 | 0.00 | 49 | 1023.0 |
| 20260502113250 | 20 | 158 | 9.7 | 16.1 | 0.00 | 0.00 | 0.00 | 48 | 1023.1 |
| 20260502113009 | 20 | 155 | 12.9 | 16.1 | 0.00 | 0.00 | 0.00 | 50 | 1023.1 |
| 20260502112513 | 20 | 176 | 4.8 | 14.5 | 0.00 | 0.00 | 0.00 | 47 | 1023.1 |
| 20260502112005 | 21 | 182 | 6.4 | 14.5 | 0.00 | 0.00 | 0.00 | 47 | 1023.4 |
| 20260502111009 | 20 | 159 | 6.4 | 14.5 | 0.00 | 0.00 | 0.00 | 50 | 1023.3 |
| 20260502110510 | 20 | 179 | 4.8 | 12.9 | 0.00 | 0.00 | 0.00 | 47 | 1023.7 |
| 20260502105745 | 20 | 165 | 8.0 | 17.7 | 0.00 | 0.00 | 0.00 | 50 | 1023.6 |
| 20260502104745 | 20 | 180 | 8.0 | 12.9 | 0.00 | 0.00 | 0.00 | 49 | 1023.6 |
| 20260502103747 | 20 | 62 | 1.6 | 16.1 | 0.00 | 0.00 | 0.00 | 50 | 1023.8 |
| 20260502103250 | 20 | 195 | 8.0 | 16.1 | 0.00 | 0.00 | 0.00 | 49 | 1023.9 |
| 20260502102746 | 20 | 166 | 4.8 | 14.5 | 0.00 | 0.00 | 0.00 | 47 | 1024.0 |
| 20260502102506 | 20 | 158 | 9.7 | 14.5 | 0.00 | 0.00 | 0.00 | 46 | 1024.1 |
| 20260502101746 | 20 | 151 | 8.0 | 14.5 | 0.00 | 0.00 | 0.00 | 49 | 1024.2 |
| 20260502101248 | 20 | 174 | 6.4 | 11.3 | 0.00 | 0.00 | 0.00 | 49 | 1024.3 |
| 20260502100749 | 19 | 155 | 9.7 | 12.9 | 0.00 | 0.00 | 0.00 | 49 | 1024.4 |
| 20260502100247 | 18 | 180 | 6.4 | 12.9 | 0.00 | 0.00 | 0.00 | 50 | 1024.3 |
| 20260502091250 | 18 | 158 | 4.8 | 9.7 | 0.00 | 0.00 | 0.00 | 51 | 1025.1 |
| 20260502091004 | 18 | 178 | 9.7 | 9.7 | 0.00 | 0.00 | 0.00 | 50 | 1025.1 |
| 20260502090247 | 17 | 185 | 6.4 | 12.9 | 0.00 | 0.00 | 0.00 | 53 | 1025.1 |
| 20260502071250 | 16 | 188 | 3.2 | 9.7 | 0.00 | 0.00 | 0.00 | 69 | 1025.3 |
| 20260502070510 | 16 | 269 | 0.0 | 8.0 | 0.00 | 0.00 | 0.00 | 69 | 1025.2 |
| 20260502070009 | 15 | 198 | 3.2 | 8.0 | 0.00 | 0.00 | 0.00 | 70 | 1025.5 |
| 20260502065518 | 16 | 166 | 3.2 | 6.4 | 0.00 | 0.00 | 0.00 | 70 | 1025.8 |
| 20260502064745 | 16 | 161 | 3.2 | 4.8 | 0.00 | 0.00 | 0.00 | 70 | 1025.6 |
| 20260502064248 | 15 | 192 | 1.6 | 8.0 | 0.00 | 0.00 | 0.00 | 73 | 1025.6 |
| 20260502063746 | 14 | 149 | 3.2 | 8.0 | 0.00 | 0.00 | 0.00 | 74 | 1025.3 |
| 20260502062746 | 14 | 165 | 1.6 | 8.0 | 0.00 | 0.00 | 0.00 | 75 | 1025.4 |
| 20260502062508 | 14 | 195 | 3.2 | 6.4 | 0.00 | 0.00 | 0.00 | 75 | 1025.5 |
| 20260502061248 | 14 | 186 | 4.8 | 4.8 | 0.00 | 0.00 | 0.00 | 75 | 1025.4 |
| 20260502061009 | 13 | 184 | 0.0 | 4.8 | 0.00 | 0.00 | 0.00 | 76 | 1025.4 |
| 20260502060247 | 13 | 132 | 0.0 | 4.8 | 0.00 | 0.00 | 0.00 | 76 | 1025.5 |
| 20260502060012 | 13 | 149 | 1.6 | 6.4 | 0.00 | 0.00 | 0.00 | 77 | 1025.4 |
| 20260502055248 | 13 | 240 | 0.0 | 6.4 | 0.00 | 0.00 | 0.00 | 77 | 1025.4 |
| 20260502054746 | 13 | 188 | 1.6 | 6.4 | 0.00 | 0.00 | 0.00 | 76 | 1025.8 |
| 20260502054250 | 13 | 140 | 3.2 | 4.8 | 0.00 | 0.00 | 0.00 | 72 | 1025.6 |
| 20260502053745 | 13 | 174 | 1.6 | 8.0 | 0.00 | 0.00 | 0.00 | 71 | 1025.4 |